Time,TemperatureF,DewpointF,PressureIn,WindDirection,WindDirectionDegrees,WindSpeedMPH,WindSpeedGustMPH,Humidity,HourlyPrecipIn,Conditions,Clouds,dailyrainin,SoftwareType,DateUTC
2013-08-21 00:01:00,71.6,49.2,29.44,NW,320,0.0,0.0,45,0.00,,,0.00,VWS V14.01,2013-08-21 04:01:00,
2013-08-21 00:06:00,71.6,49.2,29.44,NW,320,0.0,0.0,45,0.00,,,0.00,VWS V14.01,2013-08-21 04:06:00,
2013-08-21 00:11:00,71.6,49.2,29.44,NW,320,0.0,0.0,45,0.00,,,0.00,VWS V14.01,2013-08-21 04:11:00,
2013-08-21 00:16:00,71.6,49.2,29.44,NW,320,0.0,0.0,45,0.00,,,0.00,VWS V14.01,2013-08-21 04:16:00,
2013-08-21 00:21:00,71.6,49.2,29.44,NW,320,0.0,0.0,45,0.00,,,0.00,VWS V14.01,2013-08-21 04:21:00,
2013-08-21 00:26:00,71.6,49.2,29.44,NW,320,0.0,0.0,45,0.00,,,0.00,VWS V14.01,2013-08-21 04:26:00,
2013-08-21 00:31:00,70.3,48.6,29.44,NW,320,0.0,0.0,46,0.00,,,0.00,VWS V14.01,2013-08-21 04:31:00,
2013-08-21 00:36:00,70.2,48.4,29.44,NW,320,0.0,0.0,46,0.00,,,0.00,VWS V14.01,2013-08-21 04:36:00,
2013-08-21 00:41:00,70.2,48.4,29.44,NW,320,0.0,0.0,46,0.00,,,0.00,VWS V14.01,2013-08-21 04:41:00,
2013-08-21 00:46:00,70.2,48.4,29.44,NW,320,0.0,0.0,46,0.00,,,0.00,VWS V14.01,2013-08-21 04:46:00,
2013-08-21 00:52:00,70.3,49.7,29.44,NW,320,0.0,0.0,48,0.00,,,0.00,VWS V14.01,2013-08-21 04:52:00,
2013-08-21 00:57:00,70.2,49.6,29.44,NW,320,0.0,0.0,48,0.00,,,0.00,VWS V14.01,2013-08-21 04:57:00,
2013-08-21 01:01:00,70.2,49.6,29.44,NW,320,0.0,0.0,48,0.00,,,0.00,VWS V14.01,2013-08-21 05:01:00,
2013-08-21 01:07:00,70.2,49.6,29.44,NW,320,0.0,0.0,48,0.00,,,0.00,VWS V14.01,2013-08-21 05:07:00,
2013-08-21 01:12:00,70.2,50.1,29.44,NW,320,0.0,0.0,49,0.00,,,0.00,VWS V14.01,2013-08-21 05:12:00,
2013-08-21 01:17:00,70.2,50.1,29.44,NW,320,0.0,0.0,49,0.00,,,0.00,VWS V14.01,2013-08-21 05:17:00,
2013-08-21 01:22:00,70.2,50.1,29.44,NW,320,0.0,0.0,49,0.00,,,0.00,VWS V14.01,2013-08-21 05:22:00,
2013-08-21 01:27:00,70.2,50.1,29.44,NW,320,0.0,0.0,49,0.00,,,0.00,VWS V14.01,2013-08-21 05:27:00,
2013-08-21 01:32:00,70.2,50.1,29.44,NW,320,0.0,0.0,49,0.00,,,0.00,VWS V14.01,2013-08-21 05:32:00,
2013-08-21 01:37:00,70.2,50.1,29.44,NW,320,0.0,0.0,49,0.00,,,0.00,VWS V14.01,2013-08-21 05:37:00,
2013-08-21 01:42:00,70.0,50.0,29.44,NW,320,0.0,0.0,49,0.00,,,0.00,VWS V14.01,2013-08-21 05:42:00,
2013-08-21 01:47:00,70.0,50.0,29.44,NW,320,0.0,0.0,49,0.00,,,0.00,VWS V14.01,2013-08-21 05:47:00,
2013-08-21 01:52:00,69.8,49.8,29.44,NW,320,0.0,0.0,49,0.00,,,0.00,VWS V14.01,2013-08-21 05:52:00,
2013-08-21 01:57:00,69.6,50.2,29.44,NW,320,0.0,0.0,50,0.00,,,0.00,VWS V14.01,2013-08-21 05:57:00,
2013-08-21 02:02:00,69.4,50.0,29.44,NW,320,0.0,0.0,50,0.00,,,0.00,VWS V14.01,2013-08-21 06:02:00,
2013-08-21 02:07:00,69.4,50.0,29.44,NW,320,0.0,0.0,50,0.00,,,0.00,VWS V14.01,2013-08-21 06:07:00,
2013-08-21 02:12:00,69.3,49.8,29.44,NW,320,0.0,0.0,50,0.00,,,0.00,VWS V14.01,2013-08-21 06:12:00,
2013-08-21 02:17:00,69.1,49.7,29.44,NW,320,0.0,0.0,50,0.00,,,0.00,VWS V14.01,2013-08-21 06:17:00,
2013-08-21 02:22:00,69.1,50.2,29.44,NW,320,0.0,0.0,51,0.00,,,0.00,VWS V14.01,2013-08-21 06:22:00,
2013-08-21 02:27:00,69.1,50.2,29.44,NW,320,0.0,0.0,51,0.00,,,0.00,VWS V14.01,2013-08-21 06:27:00,
2013-08-21 02:32:00,69.1,50.2,29.44,NW,320,0.0,0.0,51,0.00,,,0.00,VWS V14.01,2013-08-21 06:32:00,
2013-08-21 02:37:00,69.1,50.2,29.44,NW,320,0.0,0.0,51,0.00,,,0.00,VWS V14.01,2013-08-21 06:37:00,
2013-08-21 02:42:00,68.7,50.4,29.44,NW,320,0.0,0.0,52,0.00,,,0.00,VWS V14.01,2013-08-21 06:42:00,
2013-08-21 02:47:00,68.7,50.4,29.44,NW,320,0.0,0.0,52,0.00,,,0.00,VWS V14.01,2013-08-21 06:47:00,
2013-08-21 02:52:00,68.7,50.4,29.44,NW,320,0.0,0.0,52,0.00,,,0.00,VWS V14.01,2013-08-21 06:52:00,
2013-08-21 02:57:00,68.7,50.4,29.44,NW,320,0.0,0.0,52,0.00,,,0.00,VWS V14.01,2013-08-21 06:57:00,
2013-08-21 03:02:00,68.5,50.8,29.44,NW,320,0.0,0.0,53,0.00,,,0.00,VWS V14.01,2013-08-21 07:02:00,
2013-08-21 03:07:00,68.5,50.8,29.44,NW,320,0.0,0.0,53,0.00,,,0.00,VWS V14.01,2013-08-21 07:07:00,
2013-08-21 03:12:00,68.4,50.6,29.44,NW,320,0.0,0.0,53,0.00,,,0.00,VWS V14.01,2013-08-21 07:12:00,
2013-08-21 03:17:00,68.4,50.6,29.44,NW,320,0.0,0.0,53,0.00,,,0.00,VWS V14.01,2013-08-21 07:17:00,
2013-08-21 03:22:00,68.2,50.4,29.44,NW,320,0.0,0.0,53,0.00,,,0.00,VWS V14.01,2013-08-21 07:22:00,
2013-08-21 03:27:00,68.0,50.2,29.44,NW,320,0.0,0.0,53,0.00,,,0.00,VWS V14.01,2013-08-21 07:27:00,
2013-08-21 03:32:00,67.8,50.6,29.44,NW,320,0.0,0.0,54,0.00,,,0.00,VWS V14.01,2013-08-21 07:32:00,
2013-08-21 03:37:00,67.8,50.6,29.44,NW,320,0.0,0.0,54,0.00,,,0.00,VWS V14.01,2013-08-21 07:37:00,
2013-08-21 03:42:00,67.8,50.6,29.44,NW,320,0.0,0.0,54,0.00,,,0.00,VWS V14.01,2013-08-21 07:42:00,
2013-08-21 03:47:00,67.8,50.6,29.44,NW,320,0.0,0.0,54,0.00,,,0.00,VWS V14.01,2013-08-21 07:47:00,
2013-08-21 03:52:00,67.8,50.6,29.44,NW,320,0.0,0.0,54,0.00,,,0.00,VWS V14.01,2013-08-21 07:52:00,
2013-08-21 03:57:00,67.8,50.6,29.44,NW,320,0.0,0.0,54,0.00,,,0.00,VWS V14.01,2013-08-21 07:57:00,
2013-08-21 04:02:00,67.8,50.6,29.44,NW,320,0.0,0.0,54,0.00,,,0.00,VWS V14.01,2013-08-21 08:02:00,
2013-08-21 04:07:00,67.8,50.6,29.44,NW,320,0.0,0.0,54,0.00,,,0.00,VWS V14.01,2013-08-21 08:07:00,
2013-08-21 04:12:00,67.8,50.6,29.44,NW,320,0.0,0.0,54,0.00,,,0.00,VWS V14.01,2013-08-21 08:12:00,
2013-08-21 04:17:00,67.8,50.6,29.44,NW,320,0.0,0.0,54,0.00,,,0.00,VWS V14.01,2013-08-21 08:17:00,
2013-08-21 04:22:00,67.8,50.6,29.44,NW,320,0.0,0.0,54,0.00,,,0.00,VWS V14.01,2013-08-21 08:22:00,
2013-08-21 04:27:00,67.8,50.6,29.44,NW,320,0.0,0.0,54,0.00,,,0.00,VWS V14.01,2013-08-21 08:27:00,
2013-08-21 04:32:00,67.8,50.6,29.44,NW,320,0.0,0.0,54,0.00,,,0.00,VWS V14.01,2013-08-21 08:32:00,
2013-08-21 04:37:00,67.8,50.6,29.44,NW,320,0.0,0.0,54,0.00,,,0.00,VWS V14.01,2013-08-21 08:37:00,
2013-08-21 04:42:00,67.8,50.6,29.44,NW,320,0.0,0.0,54,0.00,,,0.00,VWS V14.01,2013-08-21 08:42:00,
2013-08-21 04:47:00,67.8,50.6,29.44,NW,320,0.0,0.0,54,0.00,,,0.00,VWS V14.01,2013-08-21 08:47:00,
2013-08-21 04:52:00,67.8,50.6,29.44,NW,320,0.0,0.0,54,0.00,,,0.00,VWS V14.01,2013-08-21 08:52:00,
2013-08-21 04:57:00,67.8,50.6,29.44,NW,320,0.0,0.0,54,0.00,,,0.00,VWS V14.01,2013-08-21 08:57:00,
2013-08-21 05:02:00,67.8,50.6,29.44,NW,320,0.0,0.0,54,0.00,,,0.00,VWS V14.01,2013-08-21 09:02:00,
2013-08-21 05:07:00,67.8,50.6,29.44,NW,320,0.0,0.0,54,0.00,,,0.00,VWS V14.01,2013-08-21 09:07:00,
2013-08-21 05:12:00,67.8,50.6,29.44,NW,320,0.0,0.0,54,0.00,,,0.00,VWS V14.01,2013-08-21 09:12:00,
2013-08-21 05:17:00,67.8,50.6,29.44,NW,320,0.0,0.0,54,0.00,,,0.00,VWS V14.01,2013-08-21 09:17:00,
2013-08-21 05:22:00,67.8,50.6,29.44,NW,320,0.0,0.0,54,0.00,,,0.00,VWS V14.01,2013-08-21 09:22:00,
2013-08-21 05:27:00,67.8,50.6,29.44,NW,320,0.0,0.0,54,0.00,,,0.00,VWS V14.01,2013-08-21 09:27:00,
2013-08-21 05:32:00,67.8,50.6,29.44,NW,320,0.0,0.0,54,0.00,,,0.00,VWS V14.01,2013-08-21 09:32:00,
2013-08-21 05:37:00,67.8,50.6,29.44,NW,320,0.0,0.0,54,0.00,,,0.00,VWS V14.01,2013-08-21 09:37:00,
2013-08-21 05:42:00,67.8,50.6,29.44,NW,320,0.0,0.0,54,0.00,,,0.00,VWS V14.01,2013-08-21 09:42:00,
2013-08-21 05:47:00,67.8,50.6,29.44,NW,320,0.0,0.0,54,0.00,,,0.00,VWS V14.01,2013-08-21 09:47:00,
2013-08-21 05:52:00,67.8,50.6,29.44,NW,320,0.0,0.0,54,0.00,,,0.00,VWS V14.01,2013-08-21 09:52:00,
2013-08-21 05:57:00,67.8,50.6,29.44,NW,320,0.0,0.0,54,0.00,,,0.00,VWS V14.01,2013-08-21 09:57:00,
2013-08-21 06:02:00,67.8,50.6,29.44,NW,320,0.0,0.0,54,0.00,,,0.00,VWS V14.01,2013-08-21 10:02:00,
2013-08-21 06:07:00,67.8,50.6,29.44,NW,320,0.0,0.0,54,0.00,,,0.00,VWS V14.01,2013-08-21 10:07:00,
2013-08-21 06:12:00,67.8,50.6,29.44,NW,320,0.0,0.0,54,0.00,,,0.00,VWS V14.01,2013-08-21 10:12:00,
2013-08-21 06:17:00,67.8,50.6,29.44,NW,320,0.0,0.0,54,0.00,,,0.00,VWS V14.01,2013-08-21 10:17:00,
2013-08-21 06:22:00,67.8,50.6,29.44,NW,320,0.0,0.0,54,0.00,,,0.00,VWS V14.01,2013-08-21 10:22:00,
2013-08-21 06:27:00,67.8,50.6,29.44,NW,320,0.0,0.0,54,0.00,,,0.00,VWS V14.01,2013-08-21 10:27:00,
2013-08-21 06:32:00,67.8,50.6,29.44,NW,320,0.0,0.0,54,0.00,,,0.00,VWS V14.01,2013-08-21 10:32:00,
2013-08-21 06:38:00,67.8,50.6,29.44,NW,320,0.0,0.0,54,0.00,,,0.00,VWS V14.01,2013-08-21 10:38:00,
2013-08-21 06:43:00,67.8,50.6,29.44,NW,320,0.0,0.0,54,0.00,,,0.00,VWS V14.01,2013-08-21 10:43:00,
2013-08-21 06:48:00,67.8,50.6,29.44,NW,320,0.0,0.0,54,0.00,,,0.00,VWS V14.01,2013-08-21 10:48:00,
2013-08-21 06:53:00,67.8,50.6,29.47,NW,320,0.0,0.0,54,0.00,,,0.00,VWS V14.01,2013-08-21 10:53:00,
2013-08-21 06:58:00,67.8,50.6,29.47,NW,320,0.0,0.0,54,0.00,,,0.00,VWS V14.01,2013-08-21 10:58:00,
2013-08-21 07:03:00,67.8,50.6,29.47,NW,320,0.0,0.0,54,0.00,,,0.00,VWS V14.01,2013-08-21 11:03:00,
2013-08-21 07:08:00,66.2,52.8,29.47,NW,320,0.0,0.0,62,0.00,,,0.00,VWS V14.01,2013-08-21 11:08:00,
2013-08-21 07:13:00,66.4,53.4,29.47,NW,320,0.0,0.0,63,0.00,,,0.00,VWS V14.01,2013-08-21 11:13:00,
2013-08-21 07:18:00,66.6,53.6,29.47,NW,320,0.0,0.0,63,0.00,,,0.00,VWS V14.01,2013-08-21 11:18:00,
2013-08-21 07:23:00,66.6,53.6,29.47,NW,320,0.0,0.0,63,0.00,,,0.00,VWS V14.01,2013-08-21 11:23:00,
2013-08-21 07:28:00,66.7,53.8,29.47,NW,320,0.0,0.0,63,0.00,,,0.00,VWS V14.01,2013-08-21 11:28:00,
2013-08-21 07:33:00,66.9,53.9,29.47,NW,320,0.0,0.0,63,0.00,,,0.00,VWS V14.01,2013-08-21 11:33:00,
2013-08-21 07:38:00,67.3,54.3,29.47,NW,320,0.0,0.0,63,0.00,,,0.00,VWS V14.01,2013-08-21 11:38:00,
2013-08-21 07:43:00,67.5,54.9,29.47,NW,320,0.0,0.0,64,0.00,,,0.00,VWS V14.01,2013-08-21 11:43:00,
2013-08-21 07:48:00,67.6,55.0,29.47,NW,320,0.0,0.0,64,0.00,,,0.00,VWS V14.01,2013-08-21 11:48:00,
2013-08-21 07:53:00,67.8,55.2,29.47,NW,320,0.0,0.0,64,0.00,,,0.00,VWS V14.01,2013-08-21 11:53:00,
2013-08-21 07:58:00,68.0,55.0,29.47,NW,320,0.0,0.0,63,0.00,,,0.00,VWS V14.01,2013-08-21 11:58:00,
2013-08-21 08:03:00,68.2,55.1,29.47,NW,320,0.0,0.0,63,0.00,,,0.00,VWS V14.01,2013-08-21 12:03:00,
2013-08-21 08:08:00,68.5,55.9,29.47,NW,320,0.0,0.0,64,0.00,,,0.00,VWS V14.01,2013-08-21 12:08:00,
2013-08-21 08:13:00,68.7,56.1,29.47,NW,320,0.0,0.0,64,0.00,,,0.00,VWS V14.01,2013-08-21 12:13:00,
2013-08-21 08:18:00,69.1,56.4,29.47,NW,320,0.0,0.0,64,0.00,,,0.00,VWS V14.01,2013-08-21 12:18:00,
2013-08-21 08:23:00,69.3,56.1,29.47,NW,320,0.0,0.0,63,0.00,,,0.00,VWS V14.01,2013-08-21 12:23:00,
2013-08-21 08:28:00,69.4,56.3,29.47,NW,320,0.0,0.0,63,0.00,,,0.00,VWS V14.01,2013-08-21 12:28:00,
2013-08-21 08:33:00,69.8,56.2,29.47,NW,320,0.0,0.0,62,0.00,,,0.00,VWS V14.01,2013-08-21 12:33:00,
2013-08-21 08:38:00,70.2,56.5,29.47,NW,319,0.0,0.0,62,0.00,,,0.00,VWS V14.01,2013-08-21 12:38:00,
2013-08-21 08:43:00,70.7,56.6,29.47,NW,319,0.0,0.0,61,0.00,,,0.00,VWS V14.01,2013-08-21 12:43:00,
2013-08-21 08:48:00,71.1,56.5,29.47,NW,319,0.0,0.0,60,0.00,,,0.00,VWS V14.01,2013-08-21 12:48:00,
2013-08-21 08:53:00,71.6,57.0,29.47,NW,319,0.0,0.0,60,0.00,,,0.00,VWS V14.01,2013-08-21 12:53:00,
2013-08-21 08:58:00,72.0,56.4,29.47,NW,319,0.0,0.0,58,0.00,,,0.00,VWS V14.01,2013-08-21 12:58:00,
2013-08-21 09:03:00,72.5,55.4,29.47,NW,319,0.0,0.0,55,0.00,,,0.00,VWS V14.01,2013-08-21 13:03:00,
2013-08-21 09:08:00,72.9,55.3,29.47,NW,319,0.0,0.0,54,0.00,,,0.00,VWS V14.01,2013-08-21 13:08:00,
2013-08-21 09:13:00,73.2,55.1,29.47,NW,319,0.0,0.0,53,0.00,,,0.00,VWS V14.01,2013-08-21 13:13:00,
2013-08-21 09:18:00,73.4,54.2,29.47,NW,319,0.0,0.0,51,0.00,,,0.00,VWS V14.01,2013-08-21 13:18:00,
2013-08-21 09:23:00,73.9,54.2,29.47,NW,319,0.0,0.0,50,0.00,,,0.00,VWS V14.01,2013-08-21 13:23:00,
2013-08-21 09:28:00,74.3,53.9,29.47,NW,319,0.0,0.0,49,0.00,,,0.00,VWS V14.01,2013-08-21 13:28:00,
2013-08-21 09:33:00,74.5,53.5,29.47,NW,319,0.0,0.0,48,0.00,,,0.00,VWS V14.01,2013-08-21 13:33:00,
2013-08-21 09:38:00,74.8,53.8,29.47,NW,319,0.0,0.0,48,0.00,,,0.00,VWS V14.01,2013-08-21 13:38:00,
2013-08-21 09:43:00,75.6,53.9,29.47,NW,319,0.0,0.0,47,0.00,,,0.00,VWS V14.01,2013-08-21 13:43:00,
2013-08-21 09:48:00,75.9,54.3,29.47,NW,318,0.0,0.0,47,0.00,,,0.00,VWS V14.01,2013-08-21 13:48:00,
2013-08-21 09:53:00,76.5,54.2,29.47,NW,318,0.0,0.0,46,0.00,,,0.00,VWS V14.01,2013-08-21 13:53:00,
2013-08-21 09:59:00,77.0,54.7,29.47,NNW,335,0.0,0.0,46,0.00,,,0.00,VWS V14.01,2013-08-21 13:59:00,
2013-08-21 10:05:00,77.7,55.3,29.47,NNW,335,0.0,0.0,46,0.00,,,0.00,VWS V14.01,2013-08-21 14:05:00,
2013-08-21 10:10:00,78.1,54.4,29.47,NNW,335,0.0,0.0,44,0.00,,,0.00,VWS V14.01,2013-08-21 14:10:00,
2013-08-21 10:15:00,78.6,54.9,29.47,WNW,284,0.0,0.0,44,0.00,,,0.00,VWS V14.01,2013-08-21 14:15:00,
2013-08-21 10:20:00,79.0,55.2,29.47,WNW,284,0.0,0.0,44,0.00,,,0.00,VWS V14.01,2013-08-21 14:20:00,
2013-08-21 10:25:00,79.5,55.7,29.47,ESE,112,0.0,0.0,44,0.00,,,0.00,VWS V14.01,2013-08-21 14:25:00,
2013-08-21 10:30:00,80.2,55.7,29.47,ESE,114,0.0,0.0,43,0.00,,,0.00,VWS V14.01,2013-08-21 14:30:00,
2013-08-21 10:35:00,80.6,55.4,29.47,NNW,344,0.0,3.1,42,0.00,,,0.00,VWS V14.01,2013-08-21 14:35:00,
2013-08-21 10:40:00,81.0,55.7,29.47,SSW,208,0.0,0.0,42,0.00,,,0.00,VWS V14.01,2013-08-21 14:40:00,
2013-08-21 10:45:00,81.3,54.7,29.47,NNW,334,0.0,0.0,40,0.00,,,0.00,VWS V14.01,2013-08-21 14:45:00,
2013-08-21 10:51:00,81.5,54.2,29.47,West,276,0.0,0.0,39,0.00,,,0.00,VWS V14.01,2013-08-21 14:51:00,
2013-08-21 10:56:00,81.7,54.3,29.47,SE,142,0.0,0.0,39,0.00,,,0.00,VWS V14.01,2013-08-21 14:56:00,
2013-08-21 11:01:00,82.2,54.8,29.47,SSW,213,0.0,0.0,39,0.00,,,0.00,VWS V14.01,2013-08-21 15:01:00,
2013-08-21 11:07:00,82.4,53.5,29.44,NW,304,2.7,3.1,37,0.00,,,0.00,VWS V14.01,2013-08-21 15:07:00,
2013-08-21 11:12:00,82.6,53.0,29.44,ESE,116,3.6,3.6,36,0.00,,,0.00,VWS V14.01,2013-08-21 15:12:00,
2013-08-21 11:17:00,83.1,54.2,29.44,NW,312,2.7,2.7,37,0.00,,,0.00,VWS V14.01,2013-08-21 15:17:00,
2013-08-21 11:22:00,83.1,53.4,29.47,NNE,29,0.0,0.0,36,0.00,,,0.00,VWS V14.01,2013-08-21 15:22:00,
2013-08-21 11:27:00,83.5,53.8,29.47,West,278,0.0,0.0,36,0.00,,,0.00,VWS V14.01,2013-08-21 15:27:00,
2013-08-21 11:32:00,83.8,54.1,29.47,East,90,2.7,3.6,36,0.00,,,0.00,VWS V14.01,2013-08-21 15:32:00,
2013-08-21 11:37:00,84.0,53.5,29.47,WSW,245,0.0,0.0,35,0.00,,,0.00,VWS V14.01,2013-08-21 15:37:00,
2013-08-21 11:43:00,84.6,53.9,29.47,ENE,76,0.0,2.7,35,0.00,,,0.00,VWS V14.01,2013-08-21 15:43:00,
2013-08-21 11:50:00,85.5,54.7,29.47,East,91,0.0,0.0,35,0.00,,,0.00,VWS V14.01,2013-08-21 15:50:00,
2013-08-21 11:55:00,86.0,53.6,29.47,ESE,106,0.0,3.1,33,0.00,,,0.00,VWS V14.01,2013-08-21 15:55:00,
2013-08-21 12:02:00,86.4,52.2,29.47,West,264,0.0,0.0,31,0.00,,,0.00,VWS V14.01,2013-08-21 16:02:00,
2013-08-21 12:07:00,86.5,52.3,29.47,NW,321,3.6,3.6,31,0.00,,,0.00,VWS V14.01,2013-08-21 16:07:00,
2013-08-21 12:12:00,86.2,52.0,29.47,West,261,0.0,0.0,31,0.00,,,0.00,VWS V14.01,2013-08-21 16:12:00,
2013-08-21 12:17:00,86.5,52.3,29.47,WNW,287,0.0,0.0,31,0.00,,,0.00,VWS V14.01,2013-08-21 16:17:00,
2013-08-21 12:22:00,86.0,51.0,29.44,WNW,288,0.0,0.0,30,0.00,,,0.00,VWS V14.01,2013-08-21 16:22:00,
2013-08-21 12:27:00,86.2,51.1,29.44,WNW,288,0.0,0.0,30,0.00,,,0.00,VWS V14.01,2013-08-21 16:27:00,
2013-08-21 12:33:00,86.5,51.5,29.44,ENE,73,0.0,3.1,30,0.00,,,0.00,VWS V14.01,2013-08-21 16:33:00,
2013-08-21 12:38:00,86.9,51.8,29.44,ESE,116,0.0,2.2,30,0.00,,,0.00,VWS V14.01,2013-08-21 16:38:00,
2013-08-21 12:43:00,87.1,51.9,29.44,WNW,291,3.6,3.6,30,0.00,,,0.00,VWS V14.01,2013-08-21 16:43:00,
2013-08-21 12:48:00,87.1,51.0,29.44,WNW,282,0.0,2.2,29,0.00,,,0.00,VWS V14.01,2013-08-21 16:48:00,
2013-08-21 12:53:00,87.1,51.0,29.44,SSW,203,0.0,0.0,29,0.00,,,0.00,VWS V14.01,2013-08-21 16:53:00,
2013-08-21 12:58:00,87.1,51.0,29.44,SE,141,3.1,4.9,29,0.00,,,0.00,VWS V14.01,2013-08-21 16:58:00,
2013-08-21 13:03:00,87.3,51.2,29.44,ESE,110,0.0,4.0,29,0.00,,,0.00,VWS V14.01,2013-08-21 17:03:00,
2013-08-21 13:08:00,87.8,51.6,29.44,ESE,112,2.7,2.7,29,0.00,,,0.00,VWS V14.01,2013-08-21 17:08:00,
2013-08-21 13:13:00,88.3,52.1,29.44,WSW,251,0.0,4.9,29,0.00,,,0.00,VWS V14.01,2013-08-21 17:13:00,
2013-08-21 13:18:00,88.3,51.1,29.44,East,101,3.1,3.1,28,0.00,,,0.00,VWS V14.01,2013-08-21 17:18:00,
2013-08-21 13:23:00,88.3,51.1,29.44,SE,138,2.2,2.7,28,0.00,,,0.00,VWS V14.01,2013-08-21 17:23:00,
2013-08-21 13:28:00,88.3,51.1,29.44,NE,56,0.0,0.0,28,0.00,,,0.00,VWS V14.01,2013-08-21 17:28:00,
2013-08-21 13:33:00,88.2,51.0,29.44,East,95,0.0,3.6,28,0.00,,,0.00,VWS V14.01,2013-08-21 17:33:00,
2013-08-21 13:38:00,88.2,51.0,29.41,ESE,119,2.2,2.7,28,0.00,,,0.00,VWS V14.01,2013-08-21 17:38:00,
2013-08-21 13:43:00,88.5,51.3,29.41,NNW,332,0.0,2.2,28,0.00,,,0.00,VWS V14.01,2013-08-21 17:43:00,
2013-08-21 13:49:00,88.9,51.6,29.41,East,85,0.0,0.0,28,0.00,,,0.00,VWS V14.01,2013-08-21 17:49:00,
2013-08-21 13:54:00,89.1,51.8,29.41,WNW,283,2.7,2.7,28,0.00,,,0.00,VWS V14.01,2013-08-21 17:54:00,
2013-08-21 13:59:00,88.9,51.6,29.41,East,101,2.2,3.1,28,0.00,,,0.00,VWS V14.01,2013-08-21 17:59:00,
2013-08-21 14:04:00,88.9,51.6,29.41,ESE,105,0.0,0.0,28,0.00,,,0.00,VWS V14.01,2013-08-21 18:04:00,
2013-08-21 14:10:00,89.1,51.8,29.41,ENE,65,0.0,3.6,28,0.00,,,0.00,VWS V14.01,2013-08-21 18:10:00,
2013-08-21 14:15:00,89.4,52.1,29.41,East,95,0.0,3.6,28,0.00,,,0.00,VWS V14.01,2013-08-21 18:15:00,
2013-08-21 14:20:00,89.6,50.2,29.41,NNW,334,0.0,0.0,26,0.00,,,0.00,VWS V14.01,2013-08-21 18:20:00,
2013-08-21 14:25:00,89.6,49.2,29.41,East,82,2.7,5.8,25,0.00,,,0.00,VWS V14.01,2013-08-21 18:25:00,
2013-08-21 14:30:00,89.6,49.2,29.41,SE,133,0.0,0.0,25,0.00,,,0.00,VWS V14.01,2013-08-21 18:30:00,
2013-08-21 14:35:00,89.2,49.9,29.41,NNW,337,3.6,4.0,26,0.00,,,0.00,VWS V14.01,2013-08-21 18:35:00,
2013-08-21 14:40:00,89.2,49.9,29.41,East,84,0.0,2.2,26,0.00,,,0.00,VWS V14.01,2013-08-21 18:40:00,
2013-08-21 14:45:00,89.2,49.9,29.41,East,94,0.0,2.7,26,0.00,,,0.00,VWS V14.01,2013-08-21 18:45:00,
2013-08-21 14:50:00,89.2,50.9,29.41,North,350,3.1,4.0,27,0.00,,,0.00,VWS V14.01,2013-08-21 18:50:00,
2013-08-21 14:55:00,89.2,50.9,29.41,ESE,113,4.0,4.0,27,0.00,,,0.00,VWS V14.01,2013-08-21 18:55:00,
2013-08-21 15:00:00,89.1,48.7,29.41,WSW,245,3.1,5.4,25,0.00,,,0.00,VWS V14.01,2013-08-21 19:00:00,
2013-08-21 15:05:00,89.1,49.8,29.38,South,180,3.1,3.1,26,0.00,,,0.00,VWS V14.01,2013-08-21 19:05:00,
2013-08-21 15:10:00,89.1,50.8,29.38,East,89,0.0,0.0,27,0.00,,,0.00,VWS V14.01,2013-08-21 19:10:00,
2013-08-21 15:15:00,89.1,50.8,29.38,ESE,110,3.6,3.6,27,0.00,,,0.00,VWS V14.01,2013-08-21 19:15:00,
2013-08-21 15:20:00,88.7,48.4,29.38,ESE,110,0.0,0.0,25,0.00,,,0.00,VWS V14.01,2013-08-21 19:20:00,
2013-08-21 15:25:00,88.7,49.5,29.38,ESE,112,3.1,3.6,26,0.00,,,0.00,VWS V14.01,2013-08-21 19:25:00,
2013-08-21 15:30:00,89.1,50.8,29.38,WNW,296,0.0,0.0,27,0.00,,,0.00,VWS V14.01,2013-08-21 19:30:00,
2013-08-21 15:35:00,89.6,50.2,29.38,SW,232,0.0,0.0,26,0.00,,,0.00,VWS V14.01,2013-08-21 19:35:00,
2013-08-21 15:40:00,89.6,49.2,29.38,NW,324,0.0,3.1,25,0.00,,,0.00,VWS V14.01,2013-08-21 19:40:00,
2013-08-21 15:45:00,89.1,48.7,29.38,ESE,104,4.0,4.5,25,0.00,,,0.00,VWS V14.01,2013-08-21 19:45:00,
2013-08-21 15:50:00,88.2,47.9,29.38,ESE,109,0.0,0.0,25,0.00,,,0.00,VWS V14.01,2013-08-21 19:50:00,
2013-08-21 15:55:00,87.6,48.5,29.38,ESE,104,0.0,0.0,26,0.00,,,0.00,VWS V14.01,2013-08-21 19:55:00,
2013-08-21 16:00:00,87.3,49.2,29.38,East,87,2.7,2.7,27,0.00,,,0.00,VWS V14.01,2013-08-21 20:00:00,
2013-08-21 16:05:00,87.1,50.1,29.38,East,99,0.0,0.0,28,0.00,,,0.00,VWS V14.01,2013-08-21 20:05:00,
2013-08-21 16:10:00,86.9,49.9,29.38,SE,127,0.0,0.0,28,0.00,,,0.00,VWS V14.01,2013-08-21 20:10:00,
2013-08-21 16:15:00,86.9,49.9,29.38,ESE,105,0.0,0.0,28,0.00,,,0.00,VWS V14.01,2013-08-21 20:15:00,
2013-08-21 16:20:00,86.9,49.9,29.38,ENE,74,0.0,0.0,28,0.00,,,0.00,VWS V14.01,2013-08-21 20:20:00,
2013-08-21 16:25:00,86.7,50.7,29.38,ESE,117,2.2,2.2,29,0.00,,,0.00,VWS V14.01,2013-08-21 20:25:00,
2013-08-21 16:30:00,86.4,50.4,29.38,ESE,118,2.7,2.7,29,0.00,,,0.00,VWS V14.01,2013-08-21 20:30:00,
2013-08-21 16:35:00,86.2,50.2,29.35,WSW,251,0.0,3.6,29,0.00,,,0.00,VWS V14.01,2013-08-21 20:35:00,
2013-08-21 16:41:00,86.0,50.1,29.35,ESE,108,0.0,0.0,29,0.00,,,0.00,VWS V14.01,2013-08-21 20:41:00,
2013-08-21 16:46:00,85.8,49.9,29.35,South,185,0.0,0.0,29,0.00,,,0.00,VWS V14.01,2013-08-21 20:46:00,
2013-08-21 16:51:00,85.5,49.6,29.38,West,259,0.0,0.0,29,0.00,,,0.00,VWS V14.01,2013-08-21 20:51:00,
2013-08-21 16:56:00,85.1,49.3,29.38,ESE,102,0.0,0.0,29,0.00,,,0.00,VWS V14.01,2013-08-21 20:56:00,
2013-08-21 17:01:00,84.9,50.1,29.38,East,100,0.0,0.0,30,0.00,,,0.00,VWS V14.01,2013-08-21 21:01:00,
2013-08-21 17:06:00,84.6,49.8,29.35,ESE,105,0.0,0.0,30,0.00,,,0.00,VWS V14.01,2013-08-21 21:06:00,
2013-08-21 17:11:00,84.2,49.4,29.35,SE,140,0.0,0.0,30,0.00,,,0.00,VWS V14.01,2013-08-21 21:11:00,
2013-08-21 17:16:00,84.0,49.3,29.35,ESE,102,0.0,0.0,30,0.00,,,0.00,VWS V14.01,2013-08-21 21:16:00,
2013-08-21 17:21:00,83.7,49.0,29.35,ESE,117,0.0,0.0,30,0.00,,,0.00,VWS V14.01,2013-08-21 21:21:00,
2013-08-21 17:26:00,83.5,49.7,29.35,East,93,3.6,3.6,31,0.00,,,0.00,VWS V14.01,2013-08-21 21:26:00,
2013-08-21 17:31:00,83.1,49.4,29.35,ESE,114,0.0,0.0,31,0.00,,,0.00,VWS V14.01,2013-08-21 21:31:00,
2013-08-21 17:36:00,82.9,49.2,29.35,East,87,3.6,3.6,31,0.00,,,0.00,VWS V14.01,2013-08-21 21:36:00,
2013-08-21 17:41:00,82.8,49.1,29.35,East,79,0.0,0.0,31,0.00,,,0.00,VWS V14.01,2013-08-21 21:41:00,
2013-08-21 17:47:00,82.4,48.8,29.35,East,79,0.0,0.0,31,0.00,,,0.00,VWS V14.01,2013-08-21 21:47:00,
2013-08-21 17:52:00,82.2,49.5,29.38,East,90,0.0,0.0,32,0.00,,,0.00,VWS V14.01,2013-08-21 21:52:00,
2013-08-21 17:57:00,82.0,49.3,29.38,ESE,108,0.0,0.0,32,0.00,,,0.00,VWS V14.01,2013-08-21 21:57:00,
2013-08-21 18:02:00,81.9,49.1,29.38,East,92,0.0,0.0,32,0.00,,,0.00,VWS V14.01,2013-08-21 22:02:00,
2013-08-21 18:07:00,81.7,49.8,29.35,North,353,0.0,0.0,33,0.00,,,0.00,VWS V14.01,2013-08-21 22:07:00,
2013-08-21 18:12:00,81.3,49.5,29.35,East,83,0.0,0.0,33,0.00,,,0.00,VWS V14.01,2013-08-21 22:12:00,
2013-08-21 18:17:00,81.1,49.3,29.35,NE,43,0.0,0.0,33,0.00,,,0.00,VWS V14.01,2013-08-21 22:17:00,
2013-08-21 18:22:00,81.0,49.2,29.35,NE,55,0.0,0.0,33,0.00,,,0.00,VWS V14.01,2013-08-21 22:22:00,
2013-08-21 18:27:00,81.0,50.0,29.35,ENE,57,0.0,0.0,34,0.00,,,0.00,VWS V14.01,2013-08-21 22:27:00,
2013-08-21 18:32:00,80.8,49.8,29.35,NE,51,0.0,0.0,34,0.00,,,0.00,VWS V14.01,2013-08-21 22:32:00,
2013-08-21 18:38:00,80.4,50.3,29.35,NE,51,0.0,0.0,35,0.00,,,0.00,VWS V14.01,2013-08-21 22:38:00,
2013-08-21 18:43:00,80.2,50.9,29.35,East,90,0.0,0.0,36,0.00,,,0.00,VWS V14.01,2013-08-21 22:43:00,
2013-08-21 18:48:00,80.1,50.7,29.35,East,90,0.0,0.0,36,0.00,,,0.00,VWS V14.01,2013-08-21 22:48:00,
2013-08-21 18:53:00,79.9,51.3,29.35,East,90,0.0,0.0,37,0.00,,,0.00,VWS V14.01,2013-08-21 22:53:00,
2013-08-21 18:58:00,79.7,51.9,29.35,East,90,0.0,0.0,38,0.00,,,0.00,VWS V14.01,2013-08-21 22:58:00,
2013-08-21 19:03:00,79.3,52.3,29.35,East,90,0.0,0.0,39,0.00,,,0.00,VWS V14.01,2013-08-21 23:03:00,
2013-08-21 19:08:00,79.2,52.8,29.35,East,89,0.0,0.0,40,0.00,,,0.00,VWS V14.01,2013-08-21 23:08:00,
2013-08-21 19:13:00,78.8,53.1,29.35,East,89,0.0,0.0,41,0.00,,,0.00,VWS V14.01,2013-08-21 23:13:00,
2013-08-21 19:18:00,78.6,53.6,29.35,East,90,0.0,0.0,42,0.00,,,0.00,VWS V14.01,2013-08-21 23:18:00,
2013-08-21 19:23:00,78.4,54.1,29.35,East,90,0.0,0.0,43,0.00,,,0.00,VWS V14.01,2013-08-21 23:23:00,
2013-08-21 19:28:00,78.3,54.6,29.35,East,90,0.0,0.0,44,0.00,,,0.00,VWS V14.01,2013-08-21 23:28:00,
2013-08-21 19:33:00,77.9,54.9,29.35,East,89,0.0,0.0,45,0.00,,,0.00,VWS V14.01,2013-08-21 23:33:00,
2013-08-21 19:38:00,77.7,55.3,29.35,NNW,333,0.0,0.0,46,0.00,,,0.00,VWS V14.01,2013-08-21 23:38:00,
2013-08-21 19:43:00,77.4,56.7,29.35,East,79,4.0,4.0,49,0.00,,,0.00,VWS V14.01,2013-08-21 23:43:00,
2013-08-21 19:48:00,77.0,57.0,29.35,NE,42,0.0,0.0,50,0.00,,,0.00,VWS V14.01,2013-08-21 23:48:00,
2013-08-21 19:53:00,76.5,57.5,29.38,WSW,249,3.6,3.6,52,0.00,,,0.00,VWS V14.01,2013-08-21 23:53:00,
2013-08-21 19:58:00,76.1,58.3,29.38,North,353,0.0,3.1,54,0.00,,,0.00,VWS V14.01,2013-08-21 23:58:00,
2013-08-21 20:03:00,75.6,57.8,29.38,NNW,339,2.2,2.7,54,0.00,,,0.00,VWS V14.01,2013-08-22 00:03:00,
2013-08-21 20:09:00,75.2,57.9,29.38,North,0,0.0,0.0,55,0.00,,,0.00,VWS V14.01,2013-08-22 00:09:00,
2013-08-21 20:14:00,74.7,56.9,29.38,East,94,7.6,7.6,54,0.00,,,0.00,VWS V14.01,2013-08-22 00:14:00,
2013-08-21 20:19:00,73.8,54.5,29.38,ESE,104,3.6,3.6,51,0.00,,,0.00,VWS V14.01,2013-08-22 00:19:00,